Погода в Красном Яре

Россия / Новосибирская область     54°27′06″N   82°09′16″E
темп.,
°C
ветер,
м/с
пор.,
м/с
влажн.,
%
обл.,
%
осадки,
мм/ч
давл.,
гПа
погр.,
м
19 января, ср
ср1901:00−16юз369733 0.0 102976
04:00−16юз369852 0.0 102977
07:00−17юз369963 0.0 102862
10:00−18юз359970 0.0 102959
13:00−13зюз369662 0.0 1028132
16:00−12зюз249625 0.0 102777
19:00−17зюз229957 0.0 102914
22:00−18юз2210060 0.0 102925
20 января, чт
чт2001:00−19зюз229936 0.0 103030
04:00−20юз229916 0.0 103032
07:00−20юз339910 0.0 103140
10:00−20юз34999 0.0 103349
13:00−15зюз35935 0.0 1033126
16:00−13зюз24935 0.0 103370
19:00−17юз229717 0.0 103418
22:00−19юз229834 0.0 103521
21 января, пт
пт2101:00−20юз229925 0.0 103510
04:00−21юз119922 0.0 103510
07:00−21ююз11998 0.0 103410
10:00−22з119923 0.0 10359
13:00−16св009365 0.0 103453
16:00−16св119693 0.0 103329
19:00−20ссв11985 0.0 10339
22:00−20ссв111005 0.0 10339
22 января, сб
сб2201:00−21с1110024 0.0 10339
04:00−21ссз1110037 0.0 10349
07:00−22ссв0010064 0.0 10349
10:00−22ссз1110056 0.0 10359
13:00−16ссв119771 0.0 103552
16:00−15ссв119764 0.0 103523
19:00−19ссв0010038 0.0 10369
22:00−21зсз0110075 0.0 10379
23 января, вс
вс2301:00−20з1198100 0.0 10379
04:00−20з119772 0.0 10379
07:00−22зсз11985 0.0 10389
10:00−22юз11995 0.0 10399
13:00−16з11905 0.0 103956
16:00−14з11925 0.0 103827
19:00−18з229820 0.0 103910
22:00−20зюз22975 0.0 104014